Regional Weather Roundup
Issued by NWS Jackson, KY

Home | Current Version | Previous Version | Text Only | Print | Product List | Glossary On
Versions: 1 2 3 4 5 6 7 8 9 10 11 12 13 14 15 16 17 18 19 20 21 22 23 24 25 26 27 28 29 30 31 32 33 34 35 36 37 38 39 40 41 42 43 44 45 46 47 48 49 50
000
ASUS43 KJKL 290911
RWRJKL

EAST KENTUCKY HOURLY WEATHER ROUNDUP
NATIONAL WEATHER SERVICE JACKSON KY
500 AM EDT TUE JUL 29 2014

NOTE: "FAIR" INDICATES FEW OR NO CLOUDS BELOW 12,000 FEET WITH
NO SIGNIFICANT WEATHER AND/OR OBSTRUCTIONS TO VISIBILITY.

* THESE REPORTS ARE NOT UNDER NWS QUALITY CONTROL AND MAY NOT
  REPORT WEATHER SUCH AS PRECIPITATION AND FOG.

KYZ079-080-083-085-087-088-110-112-115-119-120-291000
...EASTERN KENTUCKY...

CITY           SKY/WX    TMP DP  RH WIND       PRES   REMARKS
JACKSON        CLEAR     57  54  89 NW5       30.00S
LONDON         CLOUDY    61  54  77 N5        30.02R
SOMERSET*      CLOUDY    61  55  82 N6        30.03R
MONTICELLO*    MOCLDY    62  58  87 CALM      30.04R
WILLIAMSBURG*  CLOUDY    59  59 100 CALM      30.02R
MIDDLESBORO*   FOG       58  58 100 CALM      30.01S VSB 3/4
HARLAN APT*    CLOUDY    55  55 100 MISG      30.01R VSB<1/4
BLACK MTN*       N/A     52  52 100 NE5         N/A
PIKEVILLE APT* MOCLDY    59  57  94 CALM      29.99S
BIG SANDY*     MOSUNNY   60  58  94 CALM      29.99R
MOREHEAD APT*    N/A     55  54  94 NW7       30.01S
$$

KYZ035-036-041-042-044-050-067-078-099-291000
...CENTRAL KENTUCKY...

CITY           SKY/WX    TMP DP  RH WIND       PRES   REMARKS
MT STERLING*   CLEAR     54  52  94 CALM      30.02S
FLEMING/MASON* CLEAR     52  52 100 W6        30.00F FOG
DANVILLE*      CLEAR     54  52  94 NW3       30.04R
RICHMOND*      CLEAR     55  50  82 NW3       30.02R
LEXINGTON      CLEAR     54  50  86 NW3       30.02S
FRANKFORT      CLEAR     53  49  86 NW6       30.02R
$$

KYZ091>093-OHZ055-061-077-WVZ005-015-034-035-042-291000
...SOUTHERN OHIO/WEST VIRGINIA...

CITY           SKY/WX    TMP DP  RH WIND       PRES   REMARKS
COVINGTON      PTCLDY    53  48  83 NW6       30.01S
COLUMBUS       CLOUDY    61  54  77 N5        29.97R
DAYTON         MOCLDY    53  50  89 N6        30.01S
WILMINGTON     PTCLDY    53  49  86 NW7       29.99S
HUNTINGTON     CLEAR     58  57  97 W6        29.96R
CHARLESTON     PTCLDY    61  61 100 NW5       29.95R
PINEVILLE*     CLOUDY    62  62 100 MISG      30.02S FOG
BECKLEY        MOCLDY    58  56  93 NW5       29.98S
BLUEFIELD      CLOUDY    60  56  86 W5        30.00S
$$

VAZ002-007-008-TNZ017-027-036-066-071-291000
...SOUTHWEST VIRGINIA/EAST TENNESSEE...

CITY           SKY/WX    TMP DP  RH WIND       PRES   REMARKS
WISE*          CLOUDY    59  59 100 NW3       30.03S
JONESVILLE*      N/A     55  55 100 CALM      30.02R
ABINGDON*      CLOUDY    60  58  93 CALM      29.99F
BRISTOL        CLEAR     57  54  89 CALM      29.98F
KNOXVILLE      MOCLDY    66  59  78 NW3       29.99R
OAK RIDGE      PTCLDY    63  60  90 CALM      30.01R
CROSSVILLE     CLEAR     60  57  89 NW6       30.04S
NASHVILLE      PTCLDY    64  56  75 N7        30.04S
$$

...KEY TO REMARKS...
VSB - VISIBILITY IN MILES
WCI - WIND CHILL INDEX
HX  - HEAT INDEX

$$


USA.gov is the U.S. government's official web portal to all federal, state and local government web resources and services.